{"data":{"norad_id":68284,"intl_designator":"2026-055Y","name":"STARLINK-37159","alt_names":[],"object_type":"PAYLOAD","status":"ACTIVE","operator":null,"country":"US","launch_date":"2026-03-19","launch_site_code":"AFETR","launch_vehicle":null,"mission":null,"orbit_class":"UNKNOWN","rcs_meters":null,"size_class":null,"mass_kg":null,"dimensions":null,"purposes":["comms"],"wikipedia_slug":null,"has_3d_model":false,"image_url":null,"decayed_at":null,"tle_current":{"epoch":"2026-09-20T04:31:09.487200Z","epoch_age_seconds":78567,"freshness":"FRESH","line1":"1 68284U 26055Y   26263.18830425  .00014030  00000+0  42548-3 0  9999","line2":"2 68284  53.1585 133.4484 0001291  63.6954 296.4181 15.34407799 29742","mean_motion":15.34407799,"eccentricity":0.0001291,"inclination_deg":53.1585,"raan_deg":133.4484,"arg_perigee_deg":63.6954,"mean_anomaly_deg":296.4181,"bstar":0.00042548,"rev_number":2974,"period_min":93.84728107733,"perigee_km":461.79691055127,"apogee_km":463.56320951617,"semimajor_km":6840.8170600337,"source":"CELESTRAK","updated_at":"2026-09-20T09:00:43.850895Z"}}}